Sarnia, Ontario

8:07 AM EDT on July 28, 2017 (GMT -0400)
Sarnia (Hadfield)

Weather History for CYZR - May, 2013

Change the Weather History Date:

Friday, May 24, 2013

  Actual Average Record
Temperature  
Mean Temperature 51 °F -  
Max Temperature 63 °F 70 °F 89 °F (1964)
Min Temperature 37 °F 54 °F 33 °F (1956)
Degree Days  
Heating Degree Days 14    
Growing Degree Days 1 (Base 50)    
Moisture  
Dew Point 36 °F    
Average Humidity 76    
Maximum Humidity 96    
Minimum Humidity 61    
Precipitation  
Precipitation 0.59 in 0.10 in - ()
Sea Level Pressure  
Sea Level Pressure 30.24 in    
Wind  
Wind Speed 16 mph ()    
Max Wind Speed 23 mph    
Max Gust Speed 32 mph    
Visibility 9.0 miles    
Events Rain    
Averages and records for this station are not official NWS values.
T = Trace of Precipitation, MM = Missing Value Source: Averaged Metar Reports

Daily Weather History Graph

Daily Weather History Graph

Search for Another Location

Airport or City:

Trip Planner

Search our weather history database for the weather conditions in past years. The results will help you decide how hot, cold, wet, or windy it might be!

Date:

Astronomy

May. 24, 2013 Rise Set
Actual Time 5:57 AM EDT 8:55 PM EDT
Civil Twilight 5:24 AM EDT 9:28 PM EDT
Nautical Twilight 4:41 AM EDT 10:11 PM EDT
Astronomical Twilight 3:51 AM EDT 11:02 PM EDT
Moon 8:35 PM EDT (5/24) 5:30 AM EDT (5/24)
Length of Visible Light 16h 04m
Length of Day
14h 57m
Full, 100% of the Moon is Illuminated
May 24
Full
May 25
Full
May 31
Last Quarter
Jun 8
New
Jun 16
First Quarter

Hourly Weather History & Observations

Time (EDT) Temp. Windchill Dew Point Humidity Pressure Visibility Wind Dir Wind Speed Gust Speed Precip Events Conditions
12:00 AM 41.0 °F 32.2 °F 35.6 °F 81% 30.13 in 9.0 mi North 18.4 mph 25.3 mph N/A   Clear
1:00 AM 41.0 °F 31.9 °F 35.6 °F 81% 30.14 in 9.0 mi North 19.6 mph 27.6 mph N/A   Clear
2:00 AM 58 °F - 57 °F 96% 29.78 in - South 5.8 mph - -  
2:00 AM 41.0 °F 32.2 °F 35.6 °F 81% 30.15 in 9.0 mi North 18.4 mph 24.2 mph N/A   Clear
3:00 AM 41.0 °F 31.4 °F 35.6 °F 81% 30.16 in 9.0 mi North 21.9 mph - N/A   Clear
4:00 AM 41.0 °F 31.1 °F 35.6 °F 81% 30.17 in 9.0 mi North 23.0 mph 28.8 mph N/A   Overcast
5:00 AM 41.0 °F 31.1 °F 33.8 °F 76% 30.19 in 9.0 mi North 23.0 mph - N/A   Overcast
6:00 AM 39.2 °F 29.3 °F 32.0 °F 75% 30.22 in 9.0 mi NNE 20.7 mph 31.1 mph N/A   Overcast
7:00 AM 39.2 °F 29.3 °F 30.2 °F 70% 30.25 in 9.0 mi North 20.7 mph 28.8 mph N/A   Overcast
8:00 AM 61 °F - 60 °F 93% 29.74 in - South 5.8 mph - -  
8:00 AM 39.2 °F 29.8 °F 32.0 °F 75% 30.27 in 9.0 mi North 18.4 mph 29.9 mph N/A   Overcast
9:00 AM 39.2 °F 29.0 °F 30.2 °F 70% 30.30 in 9.0 mi North 21.9 mph 27.6 mph N/A   Overcast
10:00 AM 41.0 °F 31.1 °F 32.0 °F 70% 30.32 in 9.0 mi North 23.0 mph 32.2 mph N/A   Overcast
11:00 AM 41.0 °F 31.1 °F 32.0 °F 70% 30.33 in 9.0 mi North 23.0 mph 28.8 mph N/A   Overcast
11:11 AM 41.0 °F 32.5 °F 33.8 °F 76% 30.34 in 9.0 mi North 17.3 mph 28.8 mph N/A Rain Light Rain
11:27 AM 41.0 °F 31.4 °F 33.8 °F 76% 30.34 in 9.0 mi North 21.9 mph 29.9 mph N/A   Overcast
11:29 AM 39.2 °F 29.3 °F 35.6 °F 87% 30.34 in 9.0 mi North 20.7 mph 28.8 mph N/A Rain Light Rain
11:46 AM 41.0 °F 31.6 °F 33.8 °F 76% 30.35 in 9.0 mi North 20.7 mph 27.6 mph N/A   Overcast
12:00 PM 41.0 °F 31.1 °F 33.8 °F 76% 30.35 in 9.0 mi North 23.0 mph - N/A   Overcast
12:39 PM 39.2 °F 29.0 °F 33.8 °F 81% 30.37 in 9.0 mi North 21.9 mph 27.6 mph N/A Rain Light Rain
12:54 PM 41.0 °F 31.4 °F 33.8 °F 76% 30.37 in 9.0 mi NNE 21.9 mph 28.8 mph N/A   Overcast
1:00 PM 42.8 °F 34.5 °F 33.8 °F 70% 30.37 in 9.0 mi North 18.4 mph 25.3 mph N/A   Overcast
2:00 PM 63 °F - 61 °F 92% 29.73 in - West 3.5 mph - -  
2:00 PM 42.8 °F 34.8 °F 30.2 °F 61% 30.37 in 9.0 mi North 17.3 mph 26.5 mph N/A   Overcast
3:00 PM 42.8 °F 35.1 °F 33.8 °F 70% 30.38 in 9.0 mi North 16.1 mph 27.6 mph N/A   Overcast
4:00 PM 44.6 °F 36.1 °F 32.0 °F 61% 30.36 in 9.0 mi North 21.9 mph 28.8 mph N/A   Clear
5:00 PM 42.8 °F 33.8 °F 30.2 °F 61% 30.37 in 9.0 mi North 21.9 mph - N/A   Clear
6:00 PM 44.6 °F 36.9 °F 32.0 °F 61% 30.36 in 9.0 mi NNE 18.4 mph 24.2 mph N/A   Clear
7:00 PM 42.8 °F 34.5 °F 30.2 °F 61% 30.35 in 9.0 mi NNE 18.4 mph - N/A   Clear
8:00 PM 49 °F - 48 °F 94% 29.91 in - North 6.9 mph - -  
8:00 PM 41.0 °F 32.8 °F 32.0 °F 70% 30.34 in 9.0 mi NNE 16.1 mph - N/A   Clear
9:00 PM 39.2 °F 33.6 °F 30.2 °F 70% 30.34 in 9.0 mi North 8.1 mph - N/A   Clear
10:00 PM 39.2 °F 33.0 °F 30.2 °F 70% 30.34 in 9.0 mi North 9.2 mph - N/A   Clear
11:00 PM 37.4 °F 32.1 °F 32.0 °F 81% 30.35 in 9.0 mi NNE 6.9 mph - N/A   Clear